Trail du Ventoux 2008 - 42 Km

Clas. TEMPS NOM PRENOM Dossard Catégorie Place/Cat
1 03:32:20 JACQUEROD CHRISTOPHE 1 V1H 1
2 03:34:03 LE NORMAND GUILLAUME 278 SH 1
3 03:40:41 CHORIER JULIEN 39 SH 2
4 03:42:02 BARTHES SERGE 13 V2H 1
5 03:44:45 THIERRY BENOIT 358 SH 3
6 03:48:56 BRUEL ERIC 6 SH 4
7 03:49:41 BARRIERE JEAN-MICHEL 384 V1H 2
8 03:52:36 BAVAY REYNALD 21 V1H 3
9 03:55:28 VALSESIA DINO NICO 61 SH 5
10 03:56:09 GAUDION THOMAS 146 SH 6
11 03:56:30 PETER FRANCK 581 SH 7
12 03:58:29 RAICHON SEBASTIEN 97 SH 8
13 03:58:32 BLONDEAU LOIC 482 SH 9
14 04:00:42 HOBLEA FABIEN 578 V1H 4
15 04:01:10 JOUNEAU PIERRE-HENRI 350 V1H 5
16 04:02:11 GOURGAUD BRUNO 569 V1H 6
17 04:03:11 MANNINO SILVIO 492 V1H 7
18 04:04:00 DE ZANET MICHAEL 402 SH 10
19 04:05:07 FARANO SEBASTIEN 540 SH 11
20 04:05:13 PERON SEBASTIEN 448 SH 12
21 04:05:39 BESSON THIERRY 223 V1H 8
22 04:07:40 ROMARY FREDERIC 429 SH 13
23 04:09:57 MARMET PATRICE 493 SH 14
24 04:10:08 DESPLANCHES LUC 51 V1H 9
25 04:10:35 BLANCHIER STEPHANE 468 V1H 10
26 04:10:46 FERRER BERNARD 426 SH 15
28 04:11:01 GALLARD JEAN-PHILIPPE 114 SH 17
27 04:11:01 KAFTANDJIAN PIERRE 92 SH 16
29 04:11:14 CARON CLAUDE 585 V1H 11
30 04:12:01 RESSEGAIRE LAURENT 64 SH 18
31 04:12:07 LANGLIN FRANCKY 239 V1H 12
32 04:14:20 SIMONCINI ERIC 219 SH 19
33 04:15:29 PAMPILE SEBASTIEN 101 SH 20
34 04:15:34 RAMSTEIN MAXIME 238 SH 21
35 04:15:45 BAVEREL FABRICE 522 SH 22
36 04:15:55 GERFAND PHILIPPE 10 V1H 13
37 04:16:14 BORNE STEPHANE 117 SH 23
38 04:16:14 RODIER FRANCK 89 V1H 14
39 04:16:43 OGGIER PIERRE-MICHEL 414 V1H 15
40 04:17:00 MAILLARD PIERRE-ANDRE 286 V1H 16
41 04:18:44 FRAISSE BERTRAND 385 V1H 17
42 04:19:03 DUTHOIT JEAN-MARC 471 V1H 18
43 04:21:44 VENNEVAULT ALEXIS 573 V2H 2
44 04:21:53 ARNAUD GERARD 584 V1H 19
45 04:22:03 DUVERT CHARLY 532 V1H 20
46 04:22:09 NAUDENOT LAURENT 4 SH 24
47 04:22:32 RAIBAUT VINCENT 65 SH 25
48 04:22:37 BERNARD GUILLAUME 200 SH 26
49 04:22:56 SALACROUP FRANCOIS 574 V1H 21
51 04:23:00 BESOMBES DIDIER 404 V1H 23
50 04:23:00 BRAGEOT MICHEL 185 V1H 22
52 04:23:00 LICHTFOUSE ERIC 362 V1H 24
53 04:23:12 PARASCANDOLA GILLES 5 SH 27
54 04:23:17 MAURIZOT NADINE 580 V1F 1
55 04:24:15 LAMOTTE FRANCK 391 SH 28
56 04:24:15 PRIEUR PATRICK 273 SH 29
57 04:24:20 BISOGNO JEAN-FRANCOIS 35 SH 30
58 04:24:44 GRANDJANNY DAMIEN 226 SH 31
59 04:25:34 TARDIF PASCAL 44 V1H 25
60 04:25:47 CARLE BASILE 479 SH 32
61 04:26:43 VAN LANDEGHEN BENOIT 476 SH 33
62 04:26:53 DESPPLANCHES NICOLAS 401 V1H 26
63 04:26:57 BASSIN JEAN-LOUIS 122 V1H 27
64 04:27:16 ENJOUBAULT DIDIER 550 V1H 28
65 04:29:52 DEVEY JEAN-MARC 458 V2H 3
66 04:30:00 SESSEGOLO DIDIER 535 V1H 29
67 04:30:05 BRIVOAL EDDY 225 V1H 30
68 04:30:43 PITOT ALAIN 183 V1H 31
69 04:31:07 FERRER RENE 428 SH 34
70 04:32:12 VEDOVATI SERGE 275 V1H 32
71 04:32:22 FADINI THIERRY 536 V1H 33
72 04:32:25 VANCASEL OLIVIER 529 SH 35
73 04:32:31 DOBKESS CHRISTOPHE 376 SH 36
74 04:32:33 APPY JEREMY 91 SH 37
75 04:32:42 DAL PRA DAVID 205 V1H 34
76 04:32:48 DERIVAZ ERIC 336 V1H 35
77 04:33:55 GONTHIER MARIE 95 SF 1
78 04:34:15 MERKER JOEL 240 SH 38
79 04:34:20 PEYRET LIONEL 340 V1H 36
80 04:34:24 GAUTIER CHRISTIAN 175 V1H 37
81 04:34:42 GUGLIERO CHRISTOPHE 141 SH 39
82 04:34:46 NOSMAS JULIEN 455 SH 40
83 04:34:54 GANDON JEAN-FRANCOIS 156 V1H 38
84 04:35:14 GIL FREDERIC 17 V1H 39
85 04:35:52 BENARD MATHIEU 371 SH 41
86 04:35:55 ESTELA OLIVIER 184 SH 42
87 04:36:03 JONGET BENJAMIN 576 SH 43
88 04:37:00 BORG PHILIPPE 421 V1H 40
89 04:37:18 CHILLET CHRISTIAN 320 V1H 41
90 04:37:23 DOAT FRANCOIS 427 V2H 4
91 04:37:43 ROSSET NICOLAS 334 V1H 42
92 04:38:17 GOUTAGUY GEORGES 328 V1H 43
93 04:38:20 BAILLON JEAN-MICHEL 505 SH 44
94 04:38:41 PEISSON ERICK 271 V2H 5
95 04:38:48 REPKE STEPHAN 511 SH 45
96 04:39:02 SZLOWIENIES JOSE 430 SH 46
97 04:39:25 GRUNDIN FABRICE 531 SH 47
98 04:39:27 GROSJEAN CHRISTINE 474 V1F 2
99 04:40:31 MORELLO LAURENT 558 SH 48
100 04:41:01 RICARD SEBASTIEN 99 SH 49
101 04:41:59 MAURICE BENJAMIN 481 SH 50
102 04:43:32 DEIXONNE JACQUES 75 V1H 44
103 04:44:51 HUBERT MATHIEU 212 SH 51
104 04:44:54 CHAINE JEAN-PIERRE 20 V3H 1
105 04:46:03 ALBRECHT JEAN-MARIE 413 V1H 45
106 04:46:58 PAUL STEPHANE 538 V1H 46
107 04:47:03 BAECHELER FREDERIC 459 SH 52
108 04:47:03 BARON SANDRINE 266 SF 2
109 04:47:18 MONTEAU MICHEL 506 V2H 6
110 04:47:41 MAIRE DANIEL 504 V2H 7
111 04:47:48 VAFFIDES PATRICK 25 V1H 47
113 04:48:07 DEFORGE RICHARD 48 SH 53
112 04:48:07 PRIN CLARY SERGE 568 V2H 8
114 04:48:24 TORT LAURENT 284 SH 54
115 04:48:33 TORDO JEAN-PIERRE 533 V3H 2
116 04:48:38 VIDELO PHILIPPE 432 V1H 48
117 04:48:41 MANIE HOCINE 422 SH 55
118 04:48:57 GUERANGER NICOLAS 267 SH 56
119 04:49:12 FAYS ALAIN 473 V2H 9
120 04:49:18 RICARD THOMAS 24 SH 57
121 04:50:03 LAMY CHRISTOPHE 521 SH 58
122 04:50:40 BLANCARD YANNICK 260 SH 59
123 04:51:11 LABBE RICHARD 234 V1H 49
124 04:51:16 CHEVRIS THIERRY 164 V1H 50
126 04:52:22 FELIERS EDDY 405 V1H 52
125 04:52:22 ROUMEAS MICHEL 11 V1H 51
127 04:52:52 LEQUEUX SYLVAIN 274 SH 60
128 04:53:13 ESNARD AURELIEN 230 SH 61
129 04:53:26 MARTIN PHILIPPE 409 SH 62
130 04:53:28 ALCARAZ YVES 436 V2H 10
131 04:54:25 BELLE FRANCIS 253 SH 63
132 04:54:49 RICHARD DIDIER 361 V1H 53
133 04:54:58 COUSTON VINCENT 300 V1H 54
134 04:55:13 BARBIER CHRISTIAN 519 V1H 55
135 04:55:17 GIACOBBE GERAD 315 V1H 56
136 04:55:32 GOUGNOT DIDIER 543 V1H 57
137 04:56:29 IBOS HUGUES 110 SH 64
138 04:56:40 PIERRE MARIA 389 V1F 3
140 04:56:59 BIGGI PATRICK 242 V1H 59
139 04:56:59 MATHIEU JEAN-MICHEL 480 V1H 58
141 04:57:26 DUJARDIN CHRISTOPHE 248 V1H 60
142 04:57:43 DUMAS RAPHAEL 290 SH 65
143 04:57:57 PASTORE JEAN-PHILIPPE 98 SH 66
144 04:58:32 CANAVAGGIA ERIC 489 V1H 61
145 04:58:43 BENOIT DENIS 518 V1H 62
146 04:59:57 BERTINEAU PATRICK 53 V1H 63
147 05:00:05 VOISIN ALAIN 251 SH 67
148 05:00:35 BARDON GERALD 167 V3H 3
149 05:00:38 DUBOIS THIERRY 264 V1H 64
150 05:00:38 MESLALLA ABDOU 446 SH 68
151 05:01:20 ROUSSEL YOHAN 173 SH 69
152 05:01:23 BRES JEAN-PIERRE 435 V2H 11
153 05:01:38 RATEAU STEPHANE 246 SH 70
154 05:01:53 ARNAU THIERRY 503 SH 71
155 05:02:26 TOUILLET VIRGINIE 451 V1F 4
156 05:02:42 BROUSSE DOMINIQUE 552 V2F 1
157 05:03:18 CHARVET DIDIER 281 V1H 65
158 05:03:21 BRUYAT ALAIN 388 V1H 66
159 05:04:28 NATHA, ELIE 140 V1H 67
160 05:04:42 BOSIO GEORGES 22 V2H 12
161 05:05:03 MAZELLA MATHIEU 494 V1H 68
162 05:05:12 BATAILLEUR DAVID 176 SH 72
163 05:05:17 ABRIVARD JACQUES 508 V2H 13
164 05:06:03 TRAVERS JEROME 416 SH 73
166 05:06:16 BOSIO CLAUDINE 23 V2F 2
165 05:06:16 DESRUMAUX CHRISTOPHE 417 SH 74
167 05:06:37 BONETO SYLVAIN 408 SH 75
168 05:06:49 CHOUIDIRA MEDHI 318 SH 76
169 05:08:38 BOSMORIN TEDDY 415 SH 77
170 05:08:42 UBERTALLI PIERRE 121 V2H 14
171 05:10:33 VALADE DIDIER 333 V1H 69
173 05:10:40 AUSSEL P.MICHEL 488 V1H 70
172 05:10:40 NEY JOEL 507 V2H 15
174 05:10:58 LUQUE JORGE 304 V2H 16
175 05:11:01 ROUCHIEZ PHILIPPE 387 V1H 71
176 05:11:04 FRAPPAZ PHILIPPE 36 V2H 17
177 05:11:07 HERMIER STEPHANE 293 V1H 72
178 05:11:09 BOUILLAGUET LIONEL 189 SH 78
179 05:11:11 DUCLAIROIR PHILIPPE 120 V1H 73
180 05:11:18 GLERANT FREDERIC 301 V1H 74
181 05:11:27 NOE LAURNT 374 SH 79
182 05:11:32 CARPENTIER DENIS 433 V2H 18
183 05:11:47 CARTEAUX SEBASTIEN 84 SH 80
184 05:11:59 BELLANGER FREDERIC 570 V1H 75
185 05:13:40 FORTANE JEAN-MARC 356 V1H 76
186 05:13:40 HOAREAU CHARLES 512 V2H 19
187 05:14:12 NERI FREDERIC 55 V1H 77
188 05:14:18 LAGARDE LAURENT 116 SH 81
189 05:14:41 SOTO JEREMY 27 SH 82
190 05:14:44 COULET CLAUDE 312 V1H 78
191 05:14:48 PIETTRE ALEXIS 147 V1H 79
192 05:15:05 BERNAT PIERRE 322 V1H 80
193 05:15:55 LACROIX JEAN-LUC 210 V2H 20
194 05:15:56 MERLANO JEAN-CHRISTOPHE 577 SH 83
195 05:16:16 DEVY JEAN 537 SH 84
196 05:16:28 FICARA DAVID 280 SH 85
197 05:18:02 DE TAXIS CHARLY 59 V1H 81
198 05:18:05 GIL DAMIEN 516 SH 86
199 05:19:17 PERRAUDIN PIERRE 165 SH 87
200 05:19:30 CADET JOHN 179 SH 88
201 05:19:36 DIVETAIN PATRICE 160 SH 89
202 05:20:33 VAGLIO PHILIPPE 382 SH 90
203 05:20:46 BOUILLET JEAN-MARC 327 V1H 82
204 05:21:00 ROCHER MIREILLE 477 V1F 5
205 05:21:03 MAILLARD RUTH 285 V1F 6
206 05:22:07 GIRONDE NATHALIE 403 SF 3
208 05:22:07 PONCET GEORGES 567 V3H 4
207 05:22:07 UGO MARC 57 V1H 83
209 05:22:11 COCHET MICHEL 305 SH 91
210 05:23:17 DAUTUN JOEL 329 V2H 21
211 05:23:34 THIJS CHRIS 406 V1H 84
212 05:23:34 WROBEL CHRISTOPHE 445 V1H 85
213 05:24:13 SEGUIN REMY 381 SH 92
214 05:24:25 CARLINO ANTOINE 502 V1H 86
215 05:24:43 BARRA ERIC 572 SH 93
216 05:24:57 CONRAD MICHAEL 190 V1H 87
217 05:25:10 BORGETTO BARDON NICOLE 168 V2F 3
218 05:25:14 LENOIR JEAN-CLADE 380 V2H 22
219 05:25:20 CAILLAUD BERTRAND 73 V1H 88
220 05:25:49 LADET BRUNO 113 V1H 89
221 05:26:05 GESCLIN NICOLAS 249 SH 94
222 05:26:24 MOURIER CLAUDE 545 V2H 23
223 05:26:25 APPARU THIERRY 8 V1H 90
224 05:26:55 GRISERIE SEBASTIEN 144 SH 95
225 05:27:05 FREJAVILLE ERIC 294 SH 96
226 05:27:07 COEURJOLLY JEAN-FRANCOIS 201 SH 97
227 05:27:08 BIR OLIVIER 307 SH 98
228 05:27:54 RIVIERE ROBERT 143 V2H 24
229 05:28:00 WALBRECQ RAYMOND 490 V1H 91
230 05:28:38 CHABERT ERIC 541 V1H 92
231 05:28:40 NOISETTE SANDY-DAVID 155 SH 99
232 05:28:43 DESPRINGRE XAVIER 46 V1H 93
233 05:28:43 MAURIZOT JEAN-PAUL 270 V2H 25
234 05:29:21 CANESTRARI GILLES 523 V1H 94
235 05:29:29 GASTALDIU PATRICK 527 V1H 95
236 05:29:30 SZLOWIENIES CHRISTELLE 431 SF 4
237 05:29:32 GAY PHILIPPE 263 SH 100
238 05:29:34 DURAND FREDERIC 258 SH 101
239 05:29:59 MENINO FABIO 465 SH 102
240 05:30:10 BOUGEARD FRANCK 177 SH 103
241 05:31:08 SAUTAI YVES 597 V2H 26
242 05:31:41 OLASO MARC 306 SH 104
243 05:31:43 COLDONAT SERGE 478 V2H 27
244 05:31:54 MAGRANIER JEAN-MICHEL 571 V1H 96
245 05:32:06 BISOGNO SOPHIE 34 SF 5
247 05:32:10 BOSC SAMUEL 367 SH 105
246 05:32:10 COLOMBANI LUCIEN 319 V2H 28
248 05:32:11 MUSETTI FREDERIC 106 V1H 97
249 05:32:39 ANGIBAULT BENOIT 443 V1H 98
250 05:32:59 AUDIBERT CHRISTIAN 236 SH 106
251 05:33:27 STURTZ LAURENT 470 SH 107
252 05:33:29 JOURDAN FRANCK 486 V1H 99
253 05:34:17 MICHEL ALAIN 218 V1H 100
254 05:34:17 VINCENDEAU STEPHANE 460 SH 108
256 05:34:34 BRUAS XAVIER 29 V1H 102
255 05:34:34 WEISS CHRISTOPHE 196 V1H 101
257 05:35:33 ESNAULT JEAN-YVES 213 V2H 29
258 05:36:00 BETTINI THOMAS 592 SH 109
259 05:37:06 PYANET YVES 542 V1H 103
260 05:37:56 GRETTEN DANIEL 339 V1H 104
261 05:38:10 FRECENON RICHARD 78 V1H 105
262 05:38:16 ZAKHROUF MABROUK 138 V2H 30
263 05:38:24 AUBRY JEROME 352 SH 110
264 05:38:26 CESAIRE LALANNE 193 V1H 106
265 05:38:27 BRICOURT WILFREID 399 SH 111
266 05:38:41 DAUMAS ALAIN 462 V1H 107
267 05:38:41 EXBRAYAT DENIS 134 V1H 108
268 05:38:50 ESPOSITO PHILIPPE 268 V1H 109
269 05:39:32 CLEMENT VALERIE 586 SF 6
270 05:39:46 LAUGIER JACQUES 119 V2H 31
271 05:39:53 PARISOT DENIS 398 V1H 110
272 05:39:55 TAMBURINI GERARD 204 V1H 111
273 05:39:57 MARTEAU CHRISTIAN 109 V1H 112
274 05:40:18 ESTEVENIN GILBERT 366 V1H 113
275 05:40:32 BRUN ERIC 394 SH 112
276 05:40:33 FELIERS YVAN 357 V3H 5
277 05:40:50 BEAUMANN DAVID 68 SH 113
278 05:40:54 CADENEL JEAN-LUC 379 V1H 114
279 05:41:24 CLEMENCEAU LAURENT 546 V1H 115
280 05:41:26 RAPILLY DIDIER 12 V2H 32
281 05:41:44 MARQUET FRANCOIS 76 V1H 116
282 05:41:50 GIRODON OLIVIER 77 V1H 117
283 05:41:50 IELPO NICOLAS 345 SH 114
284 05:42:10 AFFRE ROXANE 588 V1F 7
286 05:42:24 ALFI ANNE 152 V1F 8
285 05:42:24 SEBBAN MARC 589 V1H 118
287 05:42:43 CROVASCE BRUNO 208 SH 115
288 05:42:44 BASTARD HERVE 131 SH 116
289 05:43:33 HOULLE DANIEL 197 V1H 119
290 05:43:51 CHANEL HERVE 58 SH 117
291 05:44:00 SEGU AGNES 564 SF 7
292 05:44:08 PAUGET CHRISTOPHE 283 SH 118
294 05:44:16 BROUSSE DENIS 551 V2H 33
293 05:44:16 MASTORINO ERIC 282 V1H 120
295 05:44:44 DELORY BRUNO 555 V1H 121
296 05:45:09 SERRE FABIENNE 67 V1F 9
298 05:47:06 CHARRIN JULIEN 593 SH 119
297 05:47:06 LE BAIL THIERRY 135 V1H 122
299 05:47:17 SALVIOUX JEAN-MARC 88 V1H 123
300 05:48:53 GALERAN YOAN 254 SH 120
301 05:50:06 MACIOCI PATRICK 56 V1H 124
302 05:50:06 RAYNAL PIERRE 157 V1H 125
303 05:50:16 REYNES LAURENT 316 V1H 126
304 05:50:34 GUIMERA NOEL 491 V1H 127
305 05:50:34 MARCASUZAA HERVE 560 SH 121
306 05:50:37 ALIAGA BRUNO 378 SH 122
307 05:50:39 MOLLET ALEXIS 559 SH 123
308 05:51:00 BEUZEN MARC 556 V1H 128
309 05:51:03 GANNIO ERIC 397 V1H 129
310 05:51:20 SERAILLE FABRICE 469 SH 124
311 05:52:02 MARTIN PHILIPPE 375 SH 125
312 05:52:11 FARJOT THIERRY 485 SH 126
313 05:52:26 ROUVIERE EMMANUELLE 579 SF 8
314 05:52:27 VALLE VERONIQUE 148 V1F 10
315 05:53:08 QUINSON JOEL 188 V2H 34
316 05:53:50 BORIC LAURENT 221 SH 127
317 05:53:50 CASANOVA JEAN-CHRISTOPHE 383 SH 128
318 05:54:24 RICHARD FREDERIC 400 SH 129
319 05:54:50 BARTH THIERRY 94 SH 130
321 05:55:13 BAUDOIN FABRICE 390 V1H 131
322 05:56:04 BAUDOUY JEAN-JACQUES 227 V1H 132
323 05:56:15 STERDYNIAK PASCALE 129 V2F 4
324 05:57:00 MARY GERARD 292 V1H 133
326 05:57:16 MEURGEY JEAN-MARC 192 V2H 35
325 05:57:16 TERVILLE CHRISTOPHE 297 V1H 134
328 05:57:20 BOUGON JEAN-CLAUDE 530 V2H 36
327 05:57:20 LAUREAU FLORENCE 154 SF 9
329 05:57:23 LESIEUR PATRICK 136 V2H 37
330 05:57:28 HUMBERT CHRISTELLE 295 SF 10
332 05:57:46 BIGUET BERNARD 52 V1H 135
333 05:57:46 BUISSON GERALD 162 V1H 136
331 05:57:46 BURDIN PHILIPPE 211 V2H 38
336 05:59:22 DURAND LAURENT 483 V1H 139
335 05:59:22 LE MAOUT LOIC 467 V1H 138
334 05:59:22 SORIANO SALVADOR 80 V1H 137
338 05:59:40 LAUWERS DIDIER 365 V2H 40
337 05:59:40 SOTON JEAN-MARC 118 V2H 39
339 06:00:06 LAC BERNARD 420 V2H 41
340 06:00:09 MARTINO ALAIN 500 V1H 140
341 06:00:26 GAY MARY 104 V2H 42
342 06:00:40 MARVEAUD SANDRA 346 SF 11
343 06:00:41 MAYNARD LOUIS 145 V2H 43
344 06:00:41 SEGUI MICHEL 302 V1H 141
345 06:04:04 CHARMASSON VINCENT 497 SH 131
346 06:01:12 GERFAND CATHERINE 9 V1F 11
347 06:01:18 ARNOUX SABINE 331 V1F 12
348 06:01:45 AUZOUX FRANCOIS 102 SH 132
349 06:01:50 PROST MICHEL 487 V2H 44
350 06:03:42 D'ADDA SEBASTIEN 499 SH 133
351 06:04:31 DIAZ CHANTAL 247 V1F 13
352 06:05:42 NIMERSKEN CHRISTOPHE 180 SH 134
353 06:05:51 VANNIEUWWENHUYSE YANN 514 SH 135
354 06:06:25 COMBES PATRICE 337 V1H 142
356 06:06:55 GONZALES FABRICE 70 SH 137
355 06:06:55 PAILLER PHILIPPE 50 SH 136
357 06:07:44 MALUGANI CAROLINE 291 V1F 14
358 06:08:40 MONIERS ROLAND 373 V1H 143
359 06:08:42 CLEMENT CHRISTOPHE 587 V1H 144
360 06:08:51 RENAUD STEPHANIE 296 SF 12
361 06:08:57 AUBURTIN PHILIPPE 93 V1H 145
362 06:09:20 ALLAIRE JEAN-PHILIPPE 563 V1H 146
363 06:09:44 FONBONNE FREDERIC 237 V1H 147
364 06:09:47 PERROT SYLVAIN 16 SH 138
365 06:11:03 PEREZ RAYMOND 392 V2H 45
366 06:11:06 BONNET ISABELLE 299 V1F 15
368 06:12:31 CHALAYE ALAIN 525 SH 140
367 06:12:31 DELAMOY LAURENT 347 SH 139
370 06:13:09 ANDRIES BRUNO 137 V1H 149
369 06:13:09 MOREL DANIEL 526 V1H 148
371 06:13:40 TEPPE VIVIANE 244 V1F 16
372 06:13:43 GALLEGO FREDERIC 41 V1H 150
373 06:15:35 PEYRELONG SERGE 265 V1H 151
374 06:15:38 BERMOND CAROL 562 SH 141
375 06:15:40 TACLET JEAN-MARC 243 V1H 152
376 06:16:09 THOUVENET BENOIT 288 SH 142
378 06:17:13 BERTARINI LINE 393 V1F 17
377 06:17:13 VANNIEWENHUYSE CEDRIC 539 SH 143
379 06:17:53 ALBRECHT NADINE 412 V1F 18
380 06:17:58 FRIEZ OLIVIER 303 SH 144
381 06:18:43 CASTELLANO JEAN-YVES 548 V2H 46
383 06:19:16 CANESTRARI ANNICK 524 V1F 19
382 06:19:16 LEON LEONCE 547 V2H 47
384 06:19:42 BOUTHIER MURIEL 396 V1F 20
385 06:20:24 SOURIAU REGINE 325 V2F 5
386 06:20:35 D'ADDARIO DAVID 461 SH 145
387 06:20:38 TABAREAU THIERRY 151 V1H 153
388 06:21:05 DE STEFANI FRANCIS 575 V3H 6
389 06:25:22 CHAYRIGUES ELISABETH 449 V2F 6
390 06:25:43 LUDWIG ALAIN 194 V1H 154
391 06:25:51 SONZOGNY PASCAL 224 SH 146
392 06:25:54 LENOIR VINCENT 594 V1H 155
393 06:26:22 SOUSSERIE LAURENT 33 SH 147
394 06:26:30 COURNUT ALAIN 45 SH 148
395 06:26:36 PAINDORGE ARNAUD 40 SH 149
396 06:26:59 GEORGEL CEDRIC 554 SH 150
397 06:28:05 DEFRETIN DOMINIQUE 434 V1H 156
398 06:28:21 SIMON JEAN-PAUL 355 V2H 48
399 06:32:00 PORTELLA THIERRY 105 V1H 157
400 06:32:37 GROIUEZ DJAMEL 440 V2H 49
401 06:32:52 HOULLE MURIELLE 195 V1F 21
402 06:32:55 GERLINGER THIERRY 198 V1H 158
403 06:32:58 ROBERT YVES 171 V1H 159
404 06:33:29 LAUWERS CHANTAL 364 V2F 7
405 06:33:38 MONTEIL BRUNO 132 V1H 160
406 06:38:36 GOTZ FABIENNE 150 V1F 22
407 06:38:40 GOTZ PATRICK 149 V1H 161
408 06:39:02 SAPIEN JEAN-MICHEL 553 V2H 50
409 06:39:06 SANS MARC 344 V1H 162
410 06:40:37 BOUGEARD YVES 178 SH 151
411 06:42:34 CRESTIN JEAN-MICHEL 82 SH 152
412 06:42:35 BERGER RENE 456 V2H 51
413 06:43:21 HURGON CHRISTIAN 321 V2H 52
414 06:43:29 TRUAISCH FREDERIQUE 96 V1F 23
415 06:43:32 SOURIAU CLAUDE 326 V3H 7
416 06:43:34 LOPEZ GILBERT 32 V1H 163
417 06:55:03 ODOUARD DOMINIQUE 49 V2H 53
418 07:16:26 BERGIER JEAN-PHILIPPE 439 SH 153
419 07:17:45 FUSTIER CATHERINE 125 V1F 24
420 07:17:48 BOURRON BLANDINE 126 V1F 25
421 07:17:53 BOISSON BRUNO 354 V2H 54
422 07:17:59 SINTE ROGER 353 V2H 55

slogan-ergysport

livre trail serge jaulin

 

Partenaires